Tracking 35275 objects as of 8-Sep-2026
HD Live streaming from Space Station
objects crossing your sky now

SL-12 R/B(2)

Track SL-12 R/B(2) now!


NORAD ID: 22883
Int'l Code: 1993-069D
Launch date: October 28, 1993
Source: Commonwealth of Independent States (former USSR) (CIS)
Launch site: TYURATAM MISSILE AND SPACE COMPLEX (TTMTR)

Note: This is a ROCKET BODY
Your satellite tracking list
Your tracking list is empty




NASA's NSSDC Master Catalog

Two Line Element Set (TLE):
1 22883U 93069D   26241.17232949 -.00000260  00000-0  00000+0 0  9990
2 22883  13.8260 346.1437 0002850  47.4020 324.5122  1.00477696119803
Source of the keplerian elements: AFSPC